    Observer details:
    104 San Marcello Pistoiese.  Observers P. Bacci, M. Maestripieri,
        M. D. Grazia.  Measurers P. Bacci, L. Tesi, G. Fagioli.  0.60-m reflector
        + CCD.
    204 Schiaparelli Observatory.  Observer L. Buzzi.  0.60-m f/4.64 reflector +
        CCD.
    587 Sormano.  Observers P. Sicoli, A. Testa, G. Ventre.  Measurer P. Sicoli.
        0.5-m f/6.8 reflector + CCD.
    595 Farra dIsonzo.  Observer E. Pettarin.  0.40-m f/5.15 reflector + CCD.
    B49 Paus Observatory, Sabadell.  Observer J. Camarasa.  0.30-m f/4 Newtonian
        reflector + CCD.
    C77 Bernezzo Observatory.  Observer A. Mantero.  0.25-m f/1000.0 reflector +
        CCD.
    F51 Pan-STARRS 1, Haleakala.  Observers J. Bulger, K. Chambers, T. Lowe,
        E. Magnier, A. Schultz, M. Willman.  Measurers S. Chastel, M. Huber,
        Y. Ramanjooloo, R. Wainscoat, R. Weryk.  1.8-m Ritchey-Chretien + CCD.
    G40 Slooh.com Canary Islands Observatory.  Observer B. Lutkenhoner.  0.43-m
        f/6.8 Corrected Dall-Kirkham + CCD.
    H36 Sandlot Observatory, Scranton.  Observer G. Hug.  0.56-m reflector + CCD.
    J08 Observatorio Zonalunar, Puzol.  Observer A. Carreno.  Measurer
        J. Piqueras.  0.20-m f/5 Newtonian reflector + CCD.
    J95 Great Shefford.  Observer P. Birtwhistle.  0.41-m f/6.3
        Schmidt-Cassegrain + CCD.
    K38 M57 Observatory, Saltrio.  Observer G. Baj.  0.3-m f/5.5 Ritchey-Chretien
        + CCD.
    K88 GINOP-KHK, Piszkesteto.  Observer K. Sarneczky.  0.60-m Schmidt + CCD.
    L01 Visnjan Observatory, Tican.  Observers K. Korlevic, V. Perovic, P. Kukic,
        M. Nikic, F. Beceic.  Measurer K. Korlevic.  1.0-m f/2.9 reflector + CCD.
    P93 Space Tracking and Communications Center, JAXA.  Observers A. Asami,
        T. Nimura.  1.0-m f/3.0 reflector + CCD.
    T05 ATLAS-HKO, Haleakala.  Observers L. Denneau, J. Tonry, A. Heinze,
        H. Weiland.  Measurers L. Denneau, J. Tonry, A. Heinze, H. Weiland,
        B. Stalder.  0.5-m reflector + CCD.
    Z99 Clixby Observatory, Cleethorpes.  Observer A. Mickleburgh.  0.36-m f/8
        Schmidt-Cassegrain + CCD.
    
    Orbital elements:
    2018 YK2                                                 Earth MOID = 0.0030 AU
    Epoch 2019 Apr. 27.0 TT = JDT 2458600.5                 MPC
    M  38.73804              (2000.0)            P               Q
    n   0.24693113     Peri.  315.47396     +0.71961033     -0.68342223
    a   2.5162405      Node    88.06334     +0.66644101     +0.63007697
    e   0.6565165      Incl.    7.06135     +0.19498037     +0.36869644
    P   3.99           H   22.7           G   0.15           U   6
    Residuals in seconds of arc
    181224 F51  0.1+  0.1+    181228 K88  0.1-  0.0     181229 595  0.2-  0.2-
    181224 F51  0.1-  0.0     181228 K88  0.1+  0.1+    181229 J95  0.0   0.1-
    181224 F51  0.1+  0.1+    181228 K88  0.1-  0.1+    181229 J95  0.3-  0.2-
    181224 F51  0.1+  0.0     181228 K88  0.2-  0.3+    181229 J95  0.1+  0.3-
    181228 T05  0.3+  0.3-    181228 K88  0.3-  0.2+    181229 587  0.3-  0.2+
    181228 T05  0.0   0.3-    181228 K88  0.0   0.1+    181229 587  0.3-  0.1-
    181228 T05  0.0   0.2-    181228 104  0.1+  0.2-    181229 587  0.1-  0.0
    181228 T05  0.3+  0.2-    181228 104  0.1+  0.1-    181229 B49  0.1+  0.4-
    181228 K38  0.1+  0.0     181228 104  0.1+  0.2-    181229 B49  0.2+  0.2-
    181228 K38  0.0   0.0     181228 K88  0.3+  0.0     181229 B49  0.1+  0.1-
    181228 K38  0.1-  0.1+    181228 K88  0.1+  0.1+    181229 204  0.1-  0.2-
    181228 K38  0.2+  0.1-    181228 K88  0.2+  0.1+    181229 204  0.2-  0.2-
    181228 K38  0.2-  0.1-    181228 K88  0.0   0.2+    181229 204  0.0   0.3-
    181228 K38  0.0   0.1-    181228 K88  0.2+  0.1+    181229 204  0.0   0.2-
    181228 K38  0.1+  0.1-    181228 K88  0.2-  0.1+    181229 Z99  0.2-  0.3+
    181228 L01  0.0   0.1+    181228 K88  0.1+  0.2+    181229 Z99  0.0   0.0
    181228 L01  0.0   0.2+    181228 K88  0.0   0.2+    181229 Z99  0.3-  0.4+
    181228 L01  0.0   0.3+    181228 K88  0.1+  0.2+    181229 204  0.1-  0.1-
    181228 L01  0.0   0.0     181229 K88  0.3+  0.2+    181229 C77  0.1-  0.1-
    181228 L01  0.1-  0.3+    181229 K88  0.2-  0.2+    181229 C77  0.1+  0.1-
    181228 L01  0.1+  0.0     181229 K88  0.1+  0.0     181229 C77  0.2-  0.0
    181228 K88  0.0   0.1+    181229 K88  0.3-  0.1+    181229 J08  0.5+  0.0
    181228 K88  0.4-  0.4+    181229 G40  0.0   0.2-    181229 J08  0.5+  0.8-
    181228 K88  0.2-  0.1+    181229 G40  0.2+  0.4-    181229 J08  0.8+  0.1-
    181228 K88  0.0   0.1+    181229 P93  0.4+  0.4+    181229 J08  0.5-  0.4+
    181228 K88  0.4-  0.2+    181229 P93  0.2+  0.2+    181229 J08  0.4+  0.6+
    181228 K88  0.2+  0.1+    181229 P93  0.6+  0.2-    181229 J08  0.5+  0.1+
    181228 K88  0.1-  0.1+    181229 P93  0.1+  0.5+    181230 H36  0.1+  0.1-
    181228 K88  0.3-  0.2+    181229 595  0.6-  0.4+    181230 H36  0.1-  0.0
    181228 K88  0.1-  0.3+    181229 595  0.3-  0.2+    181230 H36  0.0   0.2-
    
    Ephemeris:
    2018 YK2                 a,e,i = 2.52, 0.66, 7                   q = 0.8643
    Date    TT    R. A. (2000) Decl.     Delta      r     Elong.  Phase     V
    2018 11 30    20 11 19.6 -36 04 26   0.2029  0.8742    51.4   118.1    23.6
    ...
    2018 12 15    21 01 01.0 -30 39 32   0.07711 0.9340    47.6   128.9    22.6
    ...
    2018 12 23    23 46 11.9 +07 47 48   0.02185 0.9835    89.1    89.6    17.5
    ...
    2018 12 29    05 45 23.6 +46 38 47   0.04756 1.0266   154.9    23.9    17.3
    2018 12 30    06 07 06.1 +46 08 13   0.05529 1.0342   156.4    22.4    17.6
    2018 12 31    06 23 07.4 +45 34 20   0.06322 1.0419   157.3    21.3    17.8
    ...
    2019 01 06    07 07 59.7 +42 54 11   0.1132  1.0902   159.7    18.3    19.1
    ...
    2019 01 14    07 26 58.0 +40 49 21   0.1842  1.1587   160.4    16.5    20.2
    ...
    2019 01 29    07 40 21.1 +38 07 40   0.3327  1.2953   155.7    18.2    21.8
    
    A. U. Tomatic                (C) Copyright 2018 MPC           M.P.E.C. 2018-Y93
    

    Read MPEC 2018-Y92 Read MPEC 2018-Y94


    MPEC number:

    Enter an MPEC number in one of the following forms:

    • 1997-B01 (the full form)
    • J97B01 (the packed version of the full form)
    • B01 (the abbreviated form)